STARLINK-1800, 46700

Orbit data source: Space-Track

STARLINK-1800, 46700 is a payload satellite owned by SpaceX/Seattle (US) in LEO that was launched on Sun, 18 Oct 2020 UTC via an FALCON 9 launch vehicle from the Air Force Eastern Test Range (AFETR). Payload-class satellites include a variety of spacecraft equipped with specific instruments for various scientific and technological missions. These include communications satellites like Starlink; space stations such as the ISS; scientific satellites like the Hubble; Earth observation satellites from companies like Planet Labs, Umbra, and HawkEye 360; GPS; miniature CubeSats for education and research; and military/defense satellites.

Not visible in the next 10 days
Identifier
46700, 2020-073AG
Orbit
LEO
Country
Flag of USUS
Related business
Manufacturer
SpaceX/Seattle
Mission
Partially operational Commercial Communications
Bus & Motor
STARLINK, Unknown motor
Mass
260 kg wet, ~248 kg dry
Launch date (UTC)
2020-10-18 (6 years ago)
Launch vehicle
FALCON 9
Launch site
Air Force Eastern Test Range (AFETR)
Object type
Payload
Rocket body
Debris
Shape & HBR
Box + 1 Pan, 10.1 m
Radar Cross Section
13.562 m², Large (>1 m²)

Expand to show TLE details & history
Last TLE update: 7 hours ago

TLE from 7 hours ago
0 STARLINK-1800
1 46700U 20073AG  26112.19745020  .01549916  18516-2  13335-2 0  9994
2 46700  53.0272 347.0644 0006691 229.6359 130.4092 16.13116634304518
Epoch: 2026-04-22T04:44Z
TLE epoch observation values (Epoch: 2026-04-22T04:44:19.697Z)
Latitude
-0.00002°
Longitude
65.71998°
Altitude
242.096 km
Speed
7.761 km/s
True Right ascension
23h 08m 15s
True Declination
0° 00' 00"
Sunlit
Object was in daylight at epoch
Visualization orbit readout
Latitude
Unknown
Longitude
Unknown
Altitude
Unknown
Speed
Unknown
Apparent Right ascension
Unknown
Apparent Declination
Unknown
Sunlit
N/A
Visualization observer readout
Local Sidereal Time
18:37:43
Azimuth
Unknown
Elevation
Unknown
Doppler factor
Unknown
Orbital elements
Apogee altitude
243.022 km
Perigee altitude
234.168 km
Semi-major axis
6,616.732 km
Eccentricity
0.00067
Inclination
53.0272°
RAAN
347.0644°
Arg. of periapsis
229.6359°
True anomaly
130.46755°
Mean anomaly
130.4092°
Eccentric anomaly
130.43838°
Mean motion
4.03253 °/min
Orbital period
89.27 mins
BSTAR
0.0013335
Loading maneuver chart data...
Computing Atmospheric mass density...

Documentation

Showing up to 5 results
|